Wind_Speed
20 20 21 21 22 22 23 23 24 25 26 27 27 27 28 29 31 33 34 36 38 39 39 40 40 41 41 43 43 42 42 42 42 41 41 41 42 42
21 22 22 23 23 24 24 25 25 26 26 28 29 29 29 29 30 32 34 35 37 39 41 42 42 43 43 44 45 44 44 44 44 44 43 43 42 42
23 23 24 25 25 25 25 25 26 27 27 28 30 30 30 31 31 31 33 35 37 39 40 42 44 44 45 45 46 46 47 46 45 45 46 45 44 44
25 25 25 26 26 26 27 27 27 28 28 29 30 31 31 31 31 32 33 34 36 38 39 42 43 45 46 46 46 47 48 48 48 47 47 47 46 45
26 27 27 27 28 28 29 29 29 29 29 29 30 31 32 32 32 32 32 33 35 36 38 40 42 44 45 47 47 48 48 50 50 49 49 48 48 48
28 28 29 29 29 30 30 31 31 31 31 31 31 32 33 33 33 33 33 33 34 35 37 39 40 42 44 46 47 48 49 50 51 51 51 50 49 49
29 30 30 31 31 32 32 32 33 33 33 33 33 33 34 34 34 34 34 34 34 35 37 38 40 41 43 45 46 47 48 50 51 52 52 52 52 51
31 31 32 32 33 33 34 34 34 34 34 34 33 34 34 35 35 35 35 35 35 36 37 38 39 40 42 43 45 46 47 49 50 52 53 53 53 52
33 33 34 34 35 35 35 35 35 36 36 36 35 35 35 36 36 36 36 36 36 36 37 37 38 39 41 42 43 45 47 48 50 51 53 54 54 54
35 36 36 36 37 37 37 37 37 37 37 37 36 36 36 37 37 37 37 36 36 36 37 37 38 39 40 41 42 43 45 47 49 50 52 54 54 54
37 37 38 38 38 39 39 39 38 38 38 38 37 37 37 37 38 38 38 38 37 37 38 38 38 39 39 40 41 42 44 45 47 49 51 53 54 54
39 40 40 40 40 40 40 40 40 40 40 39 39 38 38 38 38 38 38 39 38 37 38 39 39 40 40 40 41 42 43 44 46 48 50 52 53 54
42 42 42 42 42 42 42 42 42 42 41 41 40 40 39 38 38 38 39 39 38 38 38 39 40 40 41 40 41 42 42 44 45 46 48 50 52 53
44 44 45 44 44 44 44 44 44 44 43 42 42 41 40 40 39 39 39 39 38 38 38 39 39 40 40 41 41 42 43 43 44 44 46 48 50 52
48 48 48 48 47 47 47 46 46 45 44 44 43 41 41 40 40 39 39 38 38 38 38 39 40 40 41 41 41 42 43 43 43 44 45 47 48 51
51 51 50 50 50 50 49 48 47 46 45 45 43 42 41 40 39 38 38 38 37 36 37 38 39 40 40 40 40 41 42 43 43 44 44 45 47 48
53 52 53 53 52 51 50 49 48 47 46 45 43 42 41 40 39 38 38 38 37 36 36 37 38 39 39 39 39 39 39 41 42 42 43 44 45 46
56 55 55 54 53 52 51 50 48 47 46 44 42 41 40 39 38 38 38 37 36 36 35 35 36 36 36 36 36 37 38 39 40 41 41 42 43 44
57 57 56 54 53 52 51 50 49 47 45 43 41 40 39 38 38 37 36 36 35 34 34 33 33 33 33 33 33 35 36 37 38 39 40 40 41 42
59 58 57 55 53 52 51 49 48 46 44 42 41 39 39 38 37 36 35 35 34 33 32 32 31 31 31 31 32 32 34 35 36 37 39 40 40 41
58 57 56 54 52 50 49 47 45 43 41 40 39 38 37 36 34 34 33 33 32 31 31 30 30 30 30 31 30 31 32 33 34 36 36 38 39 40
54 53 52 50 49 47 46 44 42 40 38 37 36 35 34 34 33 32 31 31 30 30 30 29 29 29 28 29 28 29 30 31 32 33 34 35 37 38
49 48 47 46 44 43 41 40 38 36 35 34 33 33 32 32 31 30 29 29 29 29 28 28 27 27 27 26 26 27 28 30 31 31 31 33 35 35
Wind_Direction
313 312 312 311 309 307 305 303 301 297 294 291 287 283 278 275 272 269 266 262 259 257 256 255 253 251 250 249 248 247 246 246 244 242 240 239 239 238
312 311 311 311 310 308 307 305 303 300 296 293 290 286 283 280 277 274 269 266 262 260 257 255 254 253 251 249 248 248 247 246 245 244 243 241 240 240
310 310 310 311 310 309 309 307 304 301 298 295 292 289 286 283 280 277 273 269 265 263 260 257 255 254 252 251 249 248 247 246 245 244 243 241 241 241
308 309 310 310 309 308 308 307 305 303 299 295 293 291 288 285 283 280 276 272 269 265 262 260 257 255 254 252 250 249 248 246 245 244 244 242 242 241
306 308 308 308 308 307 307 307 306 304 301 297 293 291 289 287 285 282 279 276 271 268 265 262 260 257 255 253 252 250 248 246 245 244 244 244 243 242
304 306 307 307 307 306 306 306 305 304 302 299 295 291 289 287 286 284 282 278 274 271 267 264 262 259 256 254 252 251 249 247 245 244 243 243 242 242
302 303 305 306 305 305 305 304 304 304 302 300 296 292 289 287 285 284 282 280 277 273 270 267 263 261 258 255 253 251 250 247 245 244 242 242 242 242
301 302 303 304 304 304 304 303 303 303 302 300 297 292 289 287 286 284 282 281 278 275 272 268 265 262 260 257 255 252 250 248 245 244 242 241 241 241
300 301 302 303 303 303 303 302 303 303 302 300 297 293 290 288 287 285 283 281 279 276 273 270 267 264 262 259 257 254 251 249 247 244 243 242 240 240
299 300 301 302 302 301 302 302 302 301 300 299 296 293 291 289 287 285 284 281 280 278 275 271 268 266 264 262 259 256 253 250 247 245 244 242 241 240
299 299 300 300 300 301 301 302 301 300 299 298 296 294 291 289 287 285 284 282 280 277 274 272 269 267 266 263 260 257 254 251 248 245 244 242 241 240
298 298 298 298 299 299 300 300 300 299 298 297 296 294 291 289 288 286 283 282 279 276 274 272 270 268 266 263 260 258 255 252 249 246 244 243 242 240
296 296 296 296 297 297 298 299 298 297 296 296 295 294 292 289 287 286 284 282 279 277 274 272 271 269 267 263 261 258 256 253 250 248 245 243 241 240
295 294 295 295 296 296 296 297 297 296 295 295 294 293 291 289 287 286 284 282 280 278 275 273 271 269 267 265 262 258 256 254 251 248 246 243 241 240
294 294 294 294 295 295 295 295 295 294 294 294 293 292 290 289 287 286 284 283 281 278 276 273 271 269 267 265 262 259 256 254 251 249 246 244 241 240
292 293 293 293 294 294 294 293 293 293 293 293 292 291 289 288 286 285 283 282 281 279 276 274 272 270 267 265 262 259 256 253 251 248 246 244 241 240
291 291 292 292 293 292 292 292 292 292 292 291 290 289 287 286 285 283 282 281 280 279 278 275 273 270 267 263 261 259 256 253 250 247 246 244 241 239
290 290 290 291 291 291 290 290 290 290 290 289 288 287 285 284 282 281 280 280 280 279 278 276 274 270 266 263 260 258 255 252 249 246 245 243 241 239
290 290 289 289 288 287 287 287 287 288 286 286 285 284 282 282 281 280 278 279 279 279 277 276 274 270 266 263 259 257 254 250 248 246 245 243 241 239
290 289 287 287 286 285 285 285 285 284 283 283 282 281 281 280 279 278 278 278 278 278 277 275 273 269 265 263 259 257 253 249 247 246 245 243 241 239
289 288 287 286 285 284 283 282 282 281 280 280 279 279 279 279 278 277 276 276 276 277 276 275 272 268 264 262 260 256 254 251 248 245 245 243 239 237
288 287 287 286 284 283 280 279 278 277 277 277 277 276 276 276 276 275 274 273 274 275 275 273 270 267 264 262 258 255 252 251 248 245 243 241 238 236
288 286 286 285 282 280 278 275 275 274 274 274 275 274 273 273 273 272 271 272 274 274 274 271 269 267 263 260 256 254 252 250 248 246 243 238 235 232
Height
5848 5845 5843 5840 5837 5835 5832 5829 5827 5825 5822 5820 5819 5818 5817 5816 5816 5815 5815 5816 5817 5818 5819 5821 5823 5825 5827 5830 5832 5835 5838 5841 5844 5847 5851 5854 5858 5862
5843 5840 5837 5835 5832 5829 5826 5823 5821 5818 5815 5813 5811 5809 5809 5808 5807 5806 5806 5806 5806 5807 5809 5810 5812 5814 5817 5819 5822 5825 5828 5831 5834 5838 5841 5845 5849 5852
5838 5835 5832 5829 5826 5823 5820 5818 5815 5812 5809 5806 5803 5801 5800 5799 5798 5797 5796 5796 5796 5797 5798 5799 5801 5803 5805 5808 5811 5814 5817 5820 5824 5827 5831 5835 5839 5843
5832 5829 5826 5823 5820 5817 5814 5811 5808 5805 5802 5799 5796 5793 5791 5790 5789 5788 5787 5786 5786 5786 5787 5788 5789 5791 5794 5796 5799 5802 5805 5809 5812 5816 5820 5825 5828 5832
5825 5822 5819 5816 5813 5810 5807 5803 5800 5797 5794 5791 5788 5785 5783 5781 5779 5778 5777 5776 5776 5775 5776 5776 5778 5779 5781 5784 5787 5790 5793 5797 5801 5805 5809 5813 5817 5821
5818 5815 5812 5809 5806 5802 5799 5795 5792 5789 5786 5782 5779 5776 5774 5771 5770 5768 5767 5766 5765 5765 5765 5765 5766 5767 5769 5771 5774 5777 5780 5784 5788 5792 5796 5801 5805 5809
5811 5807 5804 5801 5797 5794 5791 5787 5784 5780 5777 5773 5770 5767 5765 5762 5760 5759 5757 5756 5755 5754 5754 5754 5754 5756 5756 5758 5761 5764 5767 5771 5775 5779 5783 5788 5793 5797
5802 5799 5796 5793 5789 5786 5782 5778 5775 5771 5767 5764 5761 5758 5755 5752 5750 5748 5747 5746 5745 5744 5743 5742 5742 5743 5744 5746 5748 5751 5754 5757 5761 5766 5770 5775 5780 5785
5794 5791 5787 5784 5780 5776 5773 5769 5765 5761 5758 5754 5751 5748 5745 5742 5740 5738 5736 5735 5733 5732 5731 5731 5731 5731 5732 5733 5736 5738 5741 5744 5748 5752 5757 5761 5767 5772
5785 5781 5778 5774 5770 5766 5763 5759 5755 5751 5747 5744 5741 5738 5735 5732 5729 5727 5725 5724 5723 5721 5720 5720 5719 5719 5720 5721 5723 5725 5727 5731 5734 5738 5743 5748 5753 5758
5775 5772 5768 5764 5760 5756 5752 5749 5745 5741 5737 5733 5730 5727 5724 5721 5718 5716 5714 5712 5712 5710 5708 5708 5708 5707 5708 5709 5710 5712 5714 5717 5721 5725 5729 5734 5738 5744
5765 5761 5757 5754 5750 5745 5741 5738 5734 5730 5726 5722 5719 5716 5713 5710 5707 5704 5702 5700 5699 5699 5697 5696 5695 5695 5696 5697 5697 5699 5701 5704 5707 5711 5715 5720 5724 5730
5753 5749 5746 5742 5738 5734 5729 5726 5722 5718 5714 5711 5707 5704 5701 5698 5695 5693 5691 5688 5687 5687 5685 5684 5683 5683 5683 5684 5684 5686 5688 5691 5694 5697 5701 5706 5710 5716
5740 5737 5734 5730 5725 5721 5717 5714 5709 5705 5702 5699 5695 5692 5689 5686 5683 5681 5679 5677 5675 5674 5673 5672 5671 5670 5670 5671 5672 5673 5675 5677 5680 5684 5688 5692 5696 5702
5727 5724 5720 5716 5712 5708 5705 5700 5696 5693 5689 5686 5683 5680 5677 5674 5671 5669 5667 5665 5663 5662 5660 5659 5658 5658 5657 5658 5659 5660 5661 5664 5667 5670 5674 5678 5683 5688
5713 5709 5705 5701 5697 5694 5690 5686 5683 5680 5676 5673 5670 5667 5664 5662 5659 5657 5654 5653 5651 5650 5648 5647 5646 5645 5645 5645 5645 5647 5648 5651 5654 5657 5660 5665 5669 5675
5697 5694 5690 5686 5683 5679 5676 5672 5669 5666 5663 5660 5656 5654 5651 5649 5647 5645 5642 5641 5639 5638 5636 5635 5633 5632 5632 5632 5633 5634 5636 5638 5641 5644 5647 5651 5656 5662
5680 5677 5674 5670 5667 5663 5660 5658 5655 5651 5648 5646 5643 5641 5638 5636 5634 5632 5630 5629 5627 5626 5624 5623 5621 5620 5620 5620 5621 5622 5623 5626 5628 5631 5634 5639 5645 5650
5663 5660 5656 5654 5651 5647 5644 5642 5640 5637 5634 5632 5630 5628 5626 5624 5622 5620 5619 5617 5616 5615 5613 5611 5610 5608 5608 5609 5610 5610 5612 5614 5616 5620 5623 5627 5633 5638
5645 5641 5638 5636 5633 5630 5628 5626 5624 5622 5620 5618 5616 5615 5613 5611 5610 5609 5607 5606 5604 5603 5602 5601 5599 5598 5598 5599 5599 5600 5601 5603 5606 5609 5612 5616 5621 5625
5626 5622 5620 5617 5615 5613 5611 5610 5608 5607 5606 5604 5603 5602 5601 5599 5598 5597 5596 5595 5594 5593 5592 5591 5589 5588 5588 5588 5589 5591 5591 5593 5595 5598 5601 5605 5609 5614
5607 5604 5602 5599 5597 5596 5594 5594 5593 5592 5592 5591 5590 5590 5589 5588 5587 5586 5585 5585 5584 5583 5582 5581 5579 5579 5579 5579 5580 5581 5582 5584 5586 5588 5591 5595 5599 5604
5590 5587 5585 5583 5581 5579 5579 5578 5578 5579 5579 5579 5578 5578 5577 5576 5576 5575 5575 5575 5574 5573 5572 5571 5570 5570 5570 5570 5571 5572 5573 5575 5576 5579 5582 5585 5589 5593